contact:dominique.lefevre@mio.osupytheas.fr, maurice.libes@osupytheas.fr, didier.mallarino@osupytheas.fr
Project:EMSO http://www.emso-fr.org/EMSO-France
Depth: 2436.0 m
Title:EMSO Ligure Ouest : Data MII capteur MICROCAT
DateTime_Computer,Latitude,Longitude,Temperature,Conductivity,Pressure,DateTime_Instrument
DateTime_Computer,Latitude,Longitude,degC,S m-1,dbar,DateTime_Instrument
2020-08-01T00:01:15Z,42.805,6.029,13.2983,4.60003,2470.077,2020-8-01T02:02:04Z
2020-08-01T00:04:19Z,42.805,6.029,13.2979,4.60003,2470.04,2020-8-01T02:05:07Z
2020-08-01T00:07:22Z,42.805,6.029,13.2981,4.59997,2470.04,2020-8-01T02:08:10Z
2020-08-01T00:10:25Z,42.805,6.029,13.2981,4.60001,2470.063,2020-8-01T02:11:13Z
2020-08-01T00:13:28Z,42.805,6.029,13.2990,4.60007,2470.063,2020-8-01T02:14:16Z
2020-08-01T00:16:32Z,42.805,6.029,13.2982,4.59999,2470.053,2020-8-01T02:17:20Z
2020-08-01T00:19:35Z,42.805,6.029,13.2989,4.59999,2470.077,2020-8-01T02:20:23Z
2020-08-01T00:22:38Z,42.805,6.029,13.2979,4.59987,2470.053,2020-8-01T02:23:26Z
2020-08-01T00:25:41Z,42.805,6.029,13.2982,4.60005,2470.063,2020-8-01T02:26:29Z
2020-08-01T00:28:44Z,42.805,6.029,13.2977,4.60000,2470.063,2020-8-01T02:29:33Z
2020-08-01T00:31:48Z,42.805,6.029,13.2983,4.59996,2470.053,2020-8-01T02:32:36Z
2020-08-01T00:34:51Z,42.805,6.029,13.2989,4.60011,2470.03,2020-8-01T02:35:39Z
2020-08-01T00:37:54Z,42.805,6.029,13.2983,4.60014,2470.1,2020-8-01T02:38:42Z
2020-08-01T00:40:57Z,42.805,6.029,13.2982,4.60009,2470.04,2020-8-01T02:41:46Z
2020-08-01T00:44:01Z,42.805,6.029,13.2987,4.59994,2470.077,2020-8-01T02:44:49Z
2020-08-01T00:47:04Z,42.805,6.029,13.2983,4.59999,2470.1,2020-8-01T02:47:52Z
2020-08-01T00:50:07Z,42.805,6.029,13.2983,4.60003,2470.077,2020-8-01T02:50:55Z
2020-08-01T00:53:10Z,42.805,6.029,13.2980,4.59989,2470.04,2020-8-01T02:53:58Z
2020-08-01T00:56:14Z,42.805,6.029,13.2992,4.59998,2470.04,2020-8-01T02:57:02Z
2020-08-01T00:59:17Z,42.805,6.029,13.2982,4.59994,2470.063,2020-8-01T03:00:06Z
2020-08-01T01:02:21Z,42.805,6.029,13.2984,4.59999,2470.063,2020-8-01T03:03:09Z
2020-08-01T01:05:24Z,42.805,6.029,13.2979,4.60009,2470.063,2020-8-01T03:06:12Z
2020-08-01T01:08:27Z,42.805,6.029,13.2984,4.59996,2470.017,2020-8-01T03:09:15Z
2020-08-01T01:11:31Z,42.805,6.029,13.2981,4.60001,2470.04,2020-8-01T03:12:19Z
2020-08-01T01:14:34Z,42.805,6.029,13.2985,4.59994,2470.04,2020-8-01T03:15:22Z
2020-08-01T01:17:37Z,42.805,6.029,13.2987,4.60001,2470.087,2020-8-01T03:18:25Z
2020-08-01T01:20:40Z,42.805,6.029,13.2982,4.59999,2470.087,2020-8-01T03:21:29Z
2020-08-01T01:23:44Z,42.805,6.029,13.2993,4.60001,2470.063,2020-8-01T03:24:32Z
2020-08-01T01:26:47Z,42.805,6.029,13.2990,4.60005,2470.087,2020-8-01T03:27:35Z
2020-08-01T01:29:50Z,42.805,6.029,13.2976,4.60006,2470.063,2020-8-01T03:30:38Z
2020-08-01T01:32:53Z,42.805,6.029,13.2984,4.60003,2470.087,2020-8-01T03:33:41Z
2020-08-01T01:35:57Z,42.805,6.029,13.2985,4.60000,2470.077,2020-8-01T03:36:45Z
2020-08-01T01:39:00Z,42.805,6.029,13.2983,4.60005,2470.087,2020-8-01T03:39:48Z
2020-08-01T01:42:03Z,42.805,6.029,13.2987,4.59997,2470.087,2020-8-01T03:42:51Z
2020-08-01T01:45:06Z,42.805,6.029,13.2985,4.60015,2470.063,2020-8-01T03:45:54Z
2020-08-01T01:48:10Z,42.805,6.029,13.2986,4.60011,2470.077,2020-8-01T03:48:58Z
2020-08-01T01:51:13Z,42.805,6.029,13.2985,4.60017,2470.077,2020-8-01T03:52:01Z
2020-08-01T01:54:16Z,42.805,6.029,13.2990,4.60016,2470.073,2020-8-01T03:55:04Z
2020-08-01T01:57:19Z,42.805,6.029,13.3004,4.60032,2470.087,2020-8-01T03:58:07Z
2020-08-01T02:00:23Z,42.805,6.029,13.2983,4.60007,2470.077,2020-8-01T04:01:11Z
2020-08-01T02:03:26Z,42.805,6.029,13.2979,4.60005,2470.087,2020-8-01T04:04:14Z
2020-08-01T02:06:29Z,42.805,6.029,13.2987,4.60009,2470.063,2020-8-01T04:07:17Z
2020-08-01T02:09:32Z,42.805,6.029,13.2988,4.60026,2470.077,2020-8-01T04:10:21Z
2020-08-01T02:12:36Z,42.805,6.029,13.2980,4.60033,2470.1,2020-8-01T04:13:24Z
2020-08-01T02:15:39Z,42.805,6.029,13.2982,4.60004,2470.11,2020-8-01T04:16:27Z
2020-08-01T02:18:42Z,42.805,6.029,13.2993,4.60008,2470.087,2020-8-01T04:19:30Z
2020-08-01T02:21:46Z,42.805,6.029,13.2976,4.60010,2470.1,2020-8-01T04:22:34Z
2020-08-01T02:24:49Z,42.805,6.029,13.2987,4.60009,2470.11,2020-8-01T04:25:37Z
2020-08-01T02:27:52Z,42.805,6.029,13.2993,4.60010,2470.087,2020-8-01T04:28:40Z
2020-08-01T02:30:55Z,42.805,6.029,13.2976,4.59999,2470.087,2020-8-01T04:31:43Z
2020-08-01T02:33:58Z,42.805,6.029,13.2983,4.60007,2470.087,2020-8-01T04:34:46Z
2020-08-01T02:37:02Z,42.805,6.029,13.2983,4.59997,2470.124,2020-8-01T04:37:50Z
2020-08-01T02:40:05Z,42.805,6.029,13.2983,4.59993,2470.087,2020-8-01T04:40:53Z
2020-08-01T02:43:08Z,42.805,6.029,13.2986,4.60021,2470.11,2020-8-01T04:43:56Z
2020-08-01T02:46:11Z,42.805,6.029,13.2988,4.60018,2470.124,2020-8-01T04:46:59Z
2020-08-01T02:49:14Z,42.805,6.029,13.2980,4.60005,2470.133,2020-8-01T04:50:03Z
2020-08-01T02:52:18Z,42.805,6.029,13.2980,4.59999,2470.11,2020-8-01T04:53:06Z
2020-08-01T02:55:21Z,42.805,6.029,13.2995,4.60014,2470.11,2020-8-01T04:56:09Z
2020-08-01T02:58:24Z,42.805,6.029,13.2983,4.60002,2470.11,2020-8-01T04:59:12Z
2020-08-01T03:01:27Z,42.805,6.029,13.2985,4.60003,2470.073,2020-8-01T05:02:16Z
2020-08-01T03:04:31Z,42.805,6.029,13.2986,4.60003,2470.087,2020-8-01T05:05:19Z
2020-08-01T03:07:34Z,42.805,6.029,13.2991,4.59999,2470.11,2020-8-01T05:08:22Z
2020-08-01T03:10:37Z,42.805,6.029,13.2984,4.60010,2470.133,2020-8-01T05:11:25Z
2020-08-01T03:13:40Z,42.805,6.029,13.2989,4.60011,2470.124,2020-8-01T05:14:28Z
2020-08-01T03:16:44Z,42.805,6.029,13.2986,4.60008,2470.11,2020-8-01T05:17:32Z
2020-08-01T03:19:47Z,42.805,6.029,13.2984,4.60021,2470.11,2020-8-01T05:20:35Z
2020-08-01T03:22:50Z,42.805,6.029,13.2983,4.60013,2470.11,2020-8-01T05:23:38Z
2020-08-01T03:25:53Z,42.805,6.029,13.2990,4.60007,2470.156,2020-8-01T05:26:41Z
2020-08-01T03:28:57Z,42.805,6.029,13.2983,4.60016,2470.156,2020-8-01T05:29:45Z
2020-08-01T03:32:00Z,42.805,6.029,13.2986,4.60007,2470.133,2020-8-01T05:32:48Z
2020-08-01T03:35:03Z,42.805,6.029,13.2986,4.60019,2470.133,2020-8-01T05:35:51Z
2020-08-01T03:38:07Z,42.805,6.029,13.2990,4.60034,2470.11,2020-8-01T05:38:55Z
2020-08-01T03:41:10Z,42.805,6.029,13.2991,4.60027,2470.147,2020-8-01T05:41:58Z
2020-08-01T03:44:13Z,42.805,6.029,13.2988,4.60024,2470.124,2020-8-01T05:45:01Z
2020-08-01T03:47:17Z,42.805,6.029,13.2993,4.60034,2470.133,2020-8-01T05:48:05Z
2020-08-01T03:50:20Z,42.805,6.029,13.2992,4.60038,2470.11,2020-8-01T05:51:08Z
2020-08-01T03:53:23Z,42.805,6.029,13.2997,4.60019,2470.11,2020-8-01T05:54:11Z
2020-08-01T03:56:27Z,42.805,6.029,13.3011,4.60035,2470.18,2020-8-01T05:57:15Z
2020-08-01T03:59:30Z,42.805,6.029,13.2995,4.60026,2470.133,2020-8-01T06:00:18Z
2020-08-01T04:02:33Z,42.805,6.029,13.2982,4.60039,2470.11,2020-8-01T06:03:21Z
2020-08-01T04:05:36Z,42.805,6.029,13.3002,4.60044,2470.133,2020-8-01T06:06:24Z
2020-08-01T04:08:39Z,42.805,6.029,13.2988,4.60025,2470.133,2020-8-01T06:09:27Z
2020-08-01T04:11:43Z,42.805,6.029,13.2983,4.60038,2470.11,2020-8-01T06:12:31Z
2020-08-01T04:14:46Z,42.805,6.029,13.2985,4.60035,2470.124,2020-8-01T06:15:34Z
2020-08-01T04:17:49Z,42.805,6.029,13.2993,4.60027,2470.133,2020-8-01T06:18:37Z
2020-08-01T04:20:52Z,42.805,6.029,13.2981,4.60019,2470.11,2020-8-01T06:21:40Z
2020-08-01T04:23:55Z,42.805,6.029,13.2985,4.60019,2470.133,2020-8-01T06:24:44Z
2020-08-01T04:26:59Z,42.805,6.029,13.2980,4.60000,2470.133,2020-8-01T06:27:47Z
2020-08-01T04:30:02Z,42.805,6.029,13.2983,4.60015,2470.147,2020-8-01T06:30:50Z
2020-08-01T04:33:05Z,42.805,6.029,13.2987,4.60034,2470.147,2020-8-01T06:33:54Z
2020-08-01T04:36:09Z,42.805,6.029,13.2991,4.60024,2470.124,2020-8-01T06:36:57Z
2020-08-01T04:39:12Z,42.805,6.029,13.3006,4.60026,2470.11,2020-8-01T06:40:00Z
2020-08-01T04:42:15Z,42.805,6.029,13.2990,4.60002,2470.156,2020-8-01T06:43:03Z
2020-08-01T04:45:18Z,42.805,6.029,13.2988,4.60017,2470.156,2020-8-01T06:46:07Z
2020-08-01T04:48:22Z,42.805,6.029,13.2990,4.60039,2470.147,2020-8-01T06:49:10Z
2020-08-01T04:51:25Z,42.805,6.029,13.2982,4.60014,2470.171,2020-8-01T06:52:13Z
2020-08-01T04:54:28Z,42.805,6.029,13.2984,4.60021,2470.133,2020-8-01T06:55:16Z
2020-08-01T04:57:32Z,42.805,6.029,13.2982,4.60020,2470.124,2020-8-01T06:58:20Z
2020-08-01T05:00:35Z,42.805,6.029,13.2979,4.60033,2470.156,2020-8-01T07:01:23Z
2020-08-01T05:03:38Z,42.805,6.029,13.3004,4.60031,2470.11,2020-8-01T07:04:26Z
2020-08-01T05:06:41Z,42.805,6.029,13.2987,4.60006,2470.171,2020-8-01T07:07:29Z
2020-08-01T05:09:45Z,42.805,6.029,13.2991,4.60013,2470.133,2020-8-01T07:10:33Z
2020-08-01T05:12:48Z,42.805,6.029,13.2991,4.60019,2470.171,2020-8-01T07:13:36Z
2020-08-01T05:15:51Z,42.805,6.029,13.2983,4.60022,2470.18,2020-8-01T07:16:39Z
2020-08-01T05:18:54Z,42.805,6.029,13.2980,4.60016,2470.119,2020-8-01T07:19:43Z
2020-08-01T05:21:58Z,42.805,6.029,13.2987,4.60011,2470.147,2020-8-01T07:22:46Z
2020-08-01T05:25:01Z,42.805,6.029,13.2988,4.60047,2470.156,2020-8-01T07:25:49Z
2020-08-01T05:28:04Z,42.805,6.029,13.2992,4.60030,2470.147,2020-8-01T07:28:52Z
2020-08-01T05:31:07Z,42.805,6.029,13.2980,4.60033,2470.133,2020-8-01T07:31:55Z
2020-08-01T05:34:11Z,42.805,6.029,13.2988,4.60008,2470.147,2020-8-01T07:34:59Z
2020-08-01T05:37:14Z,42.805,6.029,13.2991,4.60024,2470.11,2020-8-01T07:38:02Z
2020-08-01T05:40:17Z,42.805,6.029,13.2996,4.60035,2470.133,2020-8-01T07:41:05Z
2020-08-01T05:43:21Z,42.805,6.029,13.2983,4.60009,2470.171,2020-8-01T07:44:09Z
2020-08-01T05:46:24Z,42.805,6.029,13.2992,4.60027,2470.156,2020-8-01T07:47:12Z
2020-08-01T05:49:27Z,42.805,6.029,13.2993,4.60031,2470.133,2020-8-01T07:50:15Z
2020-08-01T05:52:31Z,42.805,6.029,13.2991,4.60047,2470.156,2020-8-01T07:53:19Z
2020-08-01T05:55:34Z,42.805,6.029,13.2988,4.60021,2470.194,2020-8-01T07:56:22Z
2020-08-01T05:58:37Z,42.805,6.029,13.2988,4.60027,2470.156,2020-8-01T07:59:25Z
2020-08-01T06:01:40Z,42.805,6.029,13.2999,4.60037,2470.133,2020-8-01T08:02:28Z
2020-08-01T06:04:43Z,42.805,6.029,13.2995,4.60057,2470.133,2020-8-01T08:05:31Z
2020-08-01T06:07:47Z,42.805,6.029,13.3015,4.60038,2470.133,2020-8-01T08:08:35Z
2020-08-01T06:10:50Z,42.805,6.029,13.3007,4.60029,2470.124,2020-8-01T08:11:38Z
2020-08-01T06:13:53Z,42.805,6.029,13.2986,4.60041,2470.133,2020-8-01T08:14:41Z
2020-08-01T06:16:57Z,42.805,6.029,13.2992,4.60026,2470.147,2020-8-01T08:17:45Z
2020-08-01T06:20:00Z,42.805,6.029,13.2983,4.60020,2470.156,2020-8-01T08:20:48Z
2020-08-01T06:23:03Z,42.805,6.029,13.2987,4.60033,2470.171,2020-8-01T08:23:51Z
2020-08-01T06:26:06Z,42.805,6.029,13.2989,4.60014,2470.171,2020-8-01T08:26:54Z
2020-08-01T06:29:09Z,42.805,6.029,13.2999,4.60041,2470.133,2020-8-01T08:29:57Z
2020-08-01T06:32:13Z,42.805,6.029,13.3004,4.60015,2470.156,2020-8-01T08:33:01Z
2020-08-01T06:35:16Z,42.805,6.029,13.2978,4.60026,2470.147,2020-8-01T08:36:04Z
2020-08-01T06:38:19Z,42.805,6.029,13.2983,4.60021,2470.147,2020-8-01T08:39:07Z
2020-08-01T06:41:22Z,42.805,6.029,13.2992,4.60016,2470.133,2020-8-01T08:42:10Z
2020-08-01T06:44:26Z,42.805,6.029,13.2990,4.60036,2470.11,2020-8-01T08:45:14Z
2020-08-01T06:47:29Z,42.805,6.029,13.2988,4.60019,2470.156,2020-8-01T08:48:17Z
2020-08-01T06:50:32Z,42.805,6.029,13.2989,4.60029,2470.133,2020-8-01T08:51:20Z
2020-08-01T06:53:36Z,42.805,6.029,13.2997,4.60035,2470.11,2020-8-01T08:54:24Z
2020-08-01T06:56:39Z,42.805,6.029,13.2991,4.60017,2470.133,2020-8-01T08:57:27Z
2020-08-01T06:59:42Z,42.805,6.029,13.2983,4.60006,2470.133,2020-8-01T09:00:30Z
2020-08-01T07:02:45Z,42.805,6.029,13.2983,4.59995,2470.133,2020-8-01T09:03:34Z
2020-08-01T07:05:49Z,42.805,6.029,13.2982,4.60004,2470.124,2020-8-01T09:06:37Z
2020-08-01T07:08:52Z,42.805,6.029,13.2983,4.60013,2470.133,2020-8-01T09:09:40Z
2020-08-01T07:11:55Z,42.805,6.029,13.2981,4.60009,2470.133,2020-8-01T09:12:43Z
2020-08-01T07:14:58Z,42.805,6.029,13.2983,4.60016,2470.133,2020-8-01T09:15:46Z
2020-08-01T07:18:02Z,42.805,6.029,13.2990,4.60002,2470.133,2020-8-01T09:18:50Z
2020-08-01T07:21:05Z,42.805,6.029,13.2986,4.60011,2470.133,2020-8-01T09:21:53Z
2020-08-01T07:24:08Z,42.805,6.029,13.2983,4.60033,2470.124,2020-8-01T09:24:56Z
2020-08-01T07:27:12Z,42.805,6.029,13.2984,4.60019,2470.133,2020-8-01T09:28:00Z
2020-08-01T07:30:15Z,42.805,6.029,13.2985,4.60010,2470.133,2020-8-01T09:31:03Z
2020-08-01T07:33:18Z,42.805,6.029,13.2988,4.60011,2470.11,2020-8-01T09:34:06Z
2020-08-01T07:36:21Z,42.805,6.029,13.2983,4.60016,2470.11,2020-8-01T09:37:09Z
2020-08-01T07:39:24Z,42.805,6.029,13.2991,4.60030,2470.124,2020-8-01T09:40:13Z
2020-08-01T07:42:28Z,42.805,6.029,13.2986,4.60001,2470.11,2020-8-01T09:43:16Z
2020-08-01T07:45:31Z,42.805,6.029,13.2984,4.60000,2470.133,2020-8-01T09:46:19Z
2020-08-01T07:48:34Z,42.805,6.029,13.2979,4.60006,2470.124,2020-8-01T09:49:22Z
2020-08-01T07:51:38Z,42.805,6.029,13.2983,4.60000,2470.124,2020-8-01T09:52:26Z
2020-08-01T07:54:41Z,42.805,6.029,13.3051,4.60014,2470.11,2020-8-01T09:55:29Z
2020-08-01T07:57:44Z,42.805,6.029,13.2996,4.60036,2470.11,2020-8-01T09:58:32Z
2020-08-01T08:00:47Z,42.805,6.029,13.2996,4.60014,2470.11,2020-8-01T10:01:35Z
2020-08-01T08:03:50Z,42.805,6.029,13.2982,4.60013,2470.1,2020-8-01T10:04:39Z
2020-08-01T08:06:54Z,42.805,6.029,13.3001,4.60014,2470.11,2020-8-01T10:07:42Z
2020-08-01T08:09:57Z,42.805,6.029,13.2982,4.59994,2470.087,2020-8-01T10:10:45Z
2020-08-01T08:13:00Z,42.805,6.029,13.2986,4.60011,2470.124,2020-8-01T10:13:48Z
2020-08-01T08:16:04Z,42.805,6.029,13.2985,4.60013,2470.087,2020-8-01T10:16:52Z
2020-08-01T08:19:07Z,42.805,6.029,13.2986,4.59999,2470.11,2020-8-01T10:19:55Z
2020-08-01T08:22:10Z,42.805,6.029,13.2980,4.60021,2470.1,2020-8-01T10:22:58Z
2020-08-01T08:25:14Z,42.805,6.029,13.2995,4.60053,2470.11,2020-8-01T10:26:02Z
2020-08-01T08:28:17Z,42.805,6.029,13.2998,4.60032,2470.063,2020-8-01T10:29:05Z
2020-08-01T08:31:20Z,42.805,6.029,13.2989,4.60019,2470.087,2020-8-01T10:32:08Z
2020-08-01T08:34:23Z,42.805,6.029,13.2983,4.60001,2470.124,2020-8-01T10:35:11Z
2020-08-01T08:37:27Z,42.805,6.029,13.2982,4.60009,2470.087,2020-8-01T10:38:15Z
2020-08-01T08:40:30Z,42.805,6.029,13.2988,4.60011,2470.11,2020-8-01T10:41:18Z
2020-08-01T08:43:33Z,42.805,6.029,13.2998,4.60003,2470.077,2020-8-01T10:44:21Z
2020-08-01T08:46:36Z,42.805,6.029,13.2979,4.60031,2470.077,2020-8-01T10:47:24Z
2020-08-01T08:49:40Z,42.805,6.029,13.2982,4.60011,2470.04,2020-8-01T10:50:28Z
2020-08-01T08:52:43Z,42.805,6.029,13.2984,4.60006,2470.124,2020-8-01T10:53:31Z
2020-08-01T08:55:46Z,42.805,6.029,13.2982,4.60016,2470.1,2020-8-01T10:56:34Z
2020-08-01T08:58:49Z,42.805,6.029,13.2990,4.60026,2470.053,2020-8-01T10:59:37Z
2020-08-01T09:01:52Z,42.805,6.029,13.3000,4.60049,2470.017,2020-8-01T11:02:41Z
2020-08-01T09:04:56Z,42.805,6.029,13.2983,4.60005,2470.087,2020-8-01T11:05:44Z
2020-08-01T09:07:59Z,42.805,6.029,13.2984,4.60021,2470.053,2020-8-01T11:08:47Z
2020-08-01T09:11:02Z,42.805,6.029,13.2983,4.60014,2470.04,2020-8-01T11:11:50Z
2020-08-01T09:14:06Z,42.805,6.029,13.2983,4.60032,2470.017,2020-8-01T11:14:54Z
2020-08-01T09:17:09Z,42.805,6.029,13.2985,4.60043,2470.063,2020-8-01T11:17:57Z
2020-08-01T09:20:12Z,42.805,6.029,13.2978,4.60006,2470.053,2020-8-01T11:21:00Z
2020-08-01T09:23:15Z,42.805,6.029,13.2985,4.60029,2470.04,2020-8-01T11:24:03Z
2020-08-01T09:26:19Z,42.805,6.029,13.2983,4.60018,2470.017,2020-8-01T11:27:07Z
2020-08-01T09:29:22Z,42.805,6.029,13.2980,4.60009,2470.04,2020-8-01T11:30:10Z
2020-08-01T09:32:25Z,42.805,6.029,13.2990,4.60024,2470.04,2020-8-01T11:33:13Z
2020-08-01T09:35:28Z,42.805,6.029,13.2984,4.60057,2470.04,2020-8-01T11:36:16Z
2020-08-01T09:38:32Z,42.805,6.029,13.2982,4.60035,2470.017,2020-8-01T11:39:20Z
2020-08-01T09:41:35Z,42.805,6.029,13.2987,4.60052,2470.04,2020-8-01T11:42:23Z
2020-08-01T09:44:38Z,42.805,6.029,13.2984,4.60036,2470.003,2020-8-01T11:45:26Z
2020-08-01T09:47:41Z,42.805,6.029,13.2994,4.60029,2470.053,2020-8-01T11:48:30Z
2020-08-01T09:50:45Z,42.805,6.029,13.2986,4.60032,2470.077,2020-8-01T11:51:33Z
2020-08-01T09:53:48Z,42.805,6.029,13.2990,4.60034,2470.03,2020-8-01T11:54:36Z
2020-08-01T09:56:51Z,42.805,6.029,13.2999,4.60016,2470.04,2020-8-01T11:57:40Z
2020-08-01T09:59:55Z,42.805,6.029,13.2984,4.60021,2470.03,2020-8-01T12:00:43Z
2020-08-01T10:02:58Z,42.805,6.029,13.2998,4.60050,2470.017,2020-8-01T12:03:46Z
2020-08-01T10:06:01Z,42.805,6.029,13.2986,4.60029,2470.017,2020-8-01T12:06:49Z
2020-08-01T10:09:04Z,42.805,6.029,13.2986,4.60022,2470.017,2020-8-01T12:09:52Z
2020-08-01T10:12:08Z,42.805,6.029,13.2982,4.60031,2469.993,2020-8-01T12:12:56Z
2020-08-01T10:15:11Z,42.805,6.029,13.2982,4.60029,2470.017,2020-8-01T12:15:59Z
2020-08-01T10:18:14Z,42.805,6.029,13.2991,4.60033,2470.017,2020-8-01T12:19:02Z
2020-08-01T10:21:17Z,42.805,6.029,13.2986,4.60021,2470.007,2020-8-01T12:22:05Z
2020-08-01T10:24:21Z,42.805,6.029,13.2990,4.60038,2470.007,2020-8-01T12:25:09Z
2020-08-01T10:27:24Z,42.805,6.029,13.2986,4.60042,2470.04,2020-8-01T12:28:12Z
2020-08-01T10:30:27Z,42.805,6.029,13.2990,4.60047,2470.03,2020-8-01T12:31:15Z
2020-08-01T10:33:30Z,42.805,6.029,13.2989,4.60026,2469.993,2020-8-01T12:34:18Z
2020-08-01T10:36:34Z,42.805,6.029,13.2993,4.60023,2469.97,2020-8-01T12:37:22Z
2020-08-01T10:39:37Z,42.805,6.029,13.2999,4.60039,2470.017,2020-8-01T12:40:25Z
2020-08-01T10:42:40Z,42.805,6.029,13.2990,4.60044,2470.007,2020-8-01T12:43:28Z
2020-08-01T10:45:43Z,42.805,6.029,13.2990,4.60025,2470.017,2020-8-01T12:46:31Z
2020-08-01T10:48:47Z,42.805,6.029,13.2987,4.60024,2469.97,2020-8-01T12:49:35Z
2020-08-01T10:51:50Z,42.805,6.029,13.2990,4.60043,2469.993,2020-8-01T12:52:38Z
2020-08-01T10:54:53Z,42.805,6.029,13.2994,4.60044,2469.993,2020-8-01T12:55:41Z
2020-08-01T10:57:56Z,42.805,6.029,13.2982,4.60024,2469.97,2020-8-01T12:58:44Z
2020-08-01T11:01:00Z,42.805,6.029,13.2981,4.60019,2470.007,2020-8-01T13:01:48Z
2020-08-01T11:04:03Z,42.805,6.029,13.2986,4.60031,2469.96,2020-8-01T13:04:51Z
2020-08-01T11:07:06Z,42.805,6.029,13.3003,4.60026,2469.984,2020-8-01T13:07:54Z
2020-08-01T11:10:09Z,42.805,6.029,13.2984,4.60044,2469.993,2020-8-01T13:10:57Z
2020-08-01T11:13:13Z,42.805,6.029,13.2984,4.60025,2469.993,2020-8-01T13:14:01Z
2020-08-01T11:16:16Z,42.805,6.029,13.2980,4.60033,2470.017,2020-8-01T13:17:04Z
2020-08-01T11:19:19Z,42.805,6.029,13.2993,4.60019,2469.947,2020-8-01T13:20:07Z
2020-08-01T11:22:22Z,42.805,6.029,13.2990,4.60031,2469.993,2020-8-01T13:23:10Z
2020-08-01T11:25:26Z,42.805,6.029,13.2988,4.60021,2469.947,2020-8-01T13:26:14Z
2020-08-01T11:28:29Z,42.805,6.029,13.2990,4.60039,2469.97,2020-8-01T13:29:17Z
2020-08-01T11:31:32Z,42.805,6.029,13.3004,4.60041,2469.97,2020-8-01T13:32:20Z
2020-08-01T11:34:35Z,42.805,6.029,13.2996,4.60036,2470.007,2020-8-01T13:35:23Z
2020-08-01T11:37:38Z,42.805,6.029,13.2985,4.60039,2469.984,2020-8-01T13:38:27Z
2020-08-01T11:40:42Z,42.805,6.029,13.2989,4.60038,2469.97,2020-8-01T13:41:30Z
2020-08-01T11:43:45Z,42.805,6.029,13.2986,4.60026,2469.97,2020-8-01T13:44:33Z
2020-08-01T11:46:48Z,42.805,6.029,13.2992,4.60029,2469.97,2020-8-01T13:47:36Z
2020-08-01T11:49:51Z,42.805,6.029,13.2986,4.60040,2469.993,2020-8-01T13:50:39Z
2020-08-01T11:52:55Z,42.805,6.029,13.2982,4.60020,2469.993,2020-8-01T13:53:43Z
2020-08-01T11:55:58Z,42.805,6.029,13.2982,4.60026,2469.984,2020-8-01T13:56:46Z
2020-08-01T11:59:01Z,42.805,6.029,13.2988,4.60016,2469.97,2020-8-01T13:59:49Z
2020-08-01T12:02:04Z,42.805,6.029,13.2982,4.60020,2469.97,2020-8-01T14:02:52Z
2020-08-01T12:05:08Z,42.805,6.029,13.2988,4.60036,2469.993,2020-8-01T14:05:56Z
2020-08-01T12:08:11Z,42.805,6.029,13.2985,4.60016,2469.984,2020-8-01T14:08:59Z
2020-08-01T12:11:14Z,42.805,6.029,13.2991,4.60031,2469.947,2020-8-01T14:12:02Z
2020-08-01T12:14:17Z,42.805,6.029,13.2987,4.60018,2469.984,2020-8-01T14:15:05Z
2020-08-01T12:17:21Z,42.805,6.029,13.2978,4.60016,2469.97,2020-8-01T14:18:09Z
2020-08-01T12:20:24Z,42.805,6.029,13.2980,4.60019,2469.947,2020-8-01T14:21:12Z
2020-08-01T12:23:27Z,42.805,6.029,13.2990,4.60042,2470.017,2020-8-01T14:24:15Z
2020-08-01T12:26:31Z,42.805,6.029,13.2991,4.60025,2469.97,2020-8-01T14:27:19Z
2020-08-01T12:29:34Z,42.805,6.029,13.2991,4.60031,2469.97,2020-8-01T14:30:22Z
2020-08-01T12:32:37Z,42.805,6.029,13.2998,4.60039,2469.97,2020-8-01T14:33:25Z
2020-08-01T12:35:40Z,42.805,6.029,13.2989,4.60021,2469.947,2020-8-01T14:36:28Z
2020-08-01T12:38:43Z,42.805,6.029,13.2992,4.60014,2470.017,2020-8-01T14:39:32Z
2020-08-01T12:41:47Z,42.805,6.029,13.2983,4.60019,2470.03,2020-8-01T14:42:35Z
2020-08-01T12:44:50Z,42.805,6.029,13.3000,4.60031,2469.984,2020-8-01T14:45:38Z
2020-08-01T12:47:53Z,42.805,6.029,13.2986,4.60032,2470.017,2020-8-01T14:48:41Z
2020-08-01T12:50:56Z,42.805,6.029,13.2989,4.60043,2469.993,2020-8-01T14:51:44Z
2020-08-01T12:54:00Z,42.805,6.029,13.2981,4.60024,2469.97,2020-8-01T14:54:48Z
2020-08-01T12:57:03Z,42.805,6.029,13.2982,4.60011,2469.993,2020-8-01T14:57:51Z
2020-08-01T13:00:06Z,42.805,6.029,13.2980,4.60041,2469.97,2020-8-01T15:00:54Z
2020-08-01T13:03:09Z,42.805,6.029,13.2991,4.60019,2469.97,2020-8-01T15:03:57Z
2020-08-01T13:06:12Z,42.805,6.029,13.2990,4.60021,2469.97,2020-8-01T15:07:01Z
2020-08-01T13:09:16Z,42.805,6.029,13.3004,4.60033,2469.984,2020-8-01T15:10:04Z
2020-08-01T13:12:19Z,42.805,6.029,13.2983,4.60042,2470.007,2020-8-01T15:13:07Z
2020-08-01T13:15:22Z,42.805,6.029,13.2991,4.60041,2469.993,2020-8-01T15:16:10Z
2020-08-01T13:18:25Z,42.805,6.029,13.2992,4.60040,2470.017,2020-8-01T15:19:14Z
2020-08-01T13:21:29Z,42.805,6.029,13.2984,4.60049,2469.984,2020-8-01T15:22:17Z
2020-08-01T13:24:32Z,42.805,6.029,13.2997,4.60031,2469.984,2020-8-01T15:25:20Z
2020-08-01T13:27:35Z,42.805,6.029,13.2990,4.60027,2470.017,2020-8-01T15:28:23Z
2020-08-01T13:30:38Z,42.805,6.029,13.2985,4.60016,2469.993,2020-8-01T15:31:27Z
2020-08-01T13:33:42Z,42.805,6.029,13.2987,4.60025,2469.993,2020-8-01T15:34:30Z
2020-08-01T13:36:45Z,42.805,6.029,13.2986,4.60014,2469.993,2020-8-01T15:37:33Z
2020-08-01T13:39:48Z,42.805,6.029,13.2981,4.60010,2470.04,2020-8-01T15:40:36Z
2020-08-01T13:42:51Z,42.805,6.029,13.2984,4.60006,2469.993,2020-8-01T15:43:39Z
2020-08-01T13:45:55Z,42.805,6.029,13.2995,4.60019,2470.017,2020-8-01T15:46:43Z
2020-08-01T13:48:58Z,42.805,6.029,13.2983,4.60024,2470.053,2020-8-01T15:49:46Z
2020-08-01T13:52:01Z,42.805,6.029,13.2982,4.60025,2470.03,2020-8-01T15:52:49Z
2020-08-01T13:55:04Z,42.805,6.029,13.2981,4.60019,2470.017,2020-8-01T15:55:52Z
2020-08-01T13:58:08Z,42.805,6.029,13.2979,4.60024,2470.03,2020-8-01T15:58:56Z
2020-08-01T14:01:11Z,42.805,6.029,13.2979,4.60020,2470.077,2020-8-01T16:01:59Z
2020-08-01T14:04:14Z,42.805,6.029,13.2993,4.60024,2470.04,2020-8-01T16:05:02Z
2020-08-01T14:07:17Z,42.805,6.029,13.2982,4.60041,2470.053,2020-8-01T16:08:06Z
2020-08-01T14:10:21Z,42.805,6.029,13.2979,4.60027,2470.03,2020-8-01T16:11:09Z
2020-08-01T14:13:24Z,42.805,6.029,13.2985,4.60021,2470.04,2020-8-01T16:14:12Z
2020-08-01T14:16:27Z,42.805,6.029,13.2985,4.60036,2470.007,2020-8-01T16:17:15Z
2020-08-01T14:19:30Z,42.805,6.029,13.2988,4.60029,2470.04,2020-8-01T16:20:18Z
2020-08-01T14:22:34Z,42.805,6.029,13.2995,4.60026,2470.03,2020-8-01T16:23:22Z
2020-08-01T14:25:37Z,42.805,6.029,13.2993,4.60044,2470.053,2020-8-01T16:26:25Z
2020-08-01T14:28:40Z,42.805,6.029,13.2988,4.60024,2470.053,2020-8-01T16:29:28Z
2020-08-01T14:31:43Z,42.805,6.029,13.2978,4.60019,2470.053,2020-8-01T16:32:31Z
2020-08-01T14:34:47Z,42.805,6.029,13.2985,4.60008,2470.04,2020-8-01T16:35:35Z
2020-08-01T14:37:50Z,42.805,6.029,13.2979,4.60021,2470.03,2020-8-01T16:38:38Z
2020-08-01T14:40:53Z,42.805,6.029,13.2985,4.60026,2470.077,2020-8-01T16:41:41Z
2020-08-01T14:43:57Z,42.805,6.029,13.2993,4.60018,2470.04,2020-8-01T16:44:45Z
2020-08-01T14:47:00Z,42.805,6.029,13.2989,4.60022,2470.03,2020-8-01T16:47:48Z
2020-08-01T14:50:03Z,42.805,6.029,13.2992,4.60009,2470.063,2020-8-01T16:50:51Z
2020-08-01T14:53:06Z,42.805,6.029,13.2983,4.60033,2470.063,2020-8-01T16:53:54Z
2020-08-01T14:56:09Z,42.805,6.029,13.2985,4.60014,2470.04,2020-8-01T16:56:58Z
2020-08-01T14:59:13Z,42.805,6.029,13.2989,4.60024,2470.053,2020-8-01T17:00:01Z
2020-08-01T15:02:16Z,42.805,6.029,13.2979,4.60016,2470.063,2020-8-01T17:03:04Z
2020-08-01T15:05:19Z,42.805,6.029,13.2992,4.60031,2470.077,2020-8-01T17:06:07Z
2020-08-01T15:08:22Z,42.805,6.029,13.2985,4.60041,2470.1,2020-8-01T17:09:10Z
2020-08-01T15:11:26Z,42.805,6.029,13.2994,4.60030,2470.063,2020-8-01T17:12:14Z
2020-08-01T15:14:29Z,42.805,6.029,13.2989,4.60025,2470.077,2020-8-01T17:15:17Z